TimePDT,TemperatureF,Dew PointF,Humidity,Sea Level PressureIn,VisibilityMPH,Wind Direction,Wind SpeedMPH,Gust SpeedMPH,PrecipitationIn,Events,Conditions,WindDirDegrees,DateUTC
12:56 AM,64.0,50.0,60,29.87,10.0,South,5.8,-,N/A,,Clear,170,2013-07-15 07:56:00
1:56 AM,60.1,50.0,69,29.86,10.0,South,5.8,-,N/A,,Clear,170,2013-07-15 08:56:00
2:56 AM,57.0,48.9,74,29.86,10.0,SSE,3.5,-,N/A,,Clear,160,2013-07-15 09:56:00
3:56 AM,55.9,48.9,77,29.86,10.0,South,3.5,-,N/A,,Clear,180,2013-07-15 10:56:00
4:56 AM,54.0,48.9,83,29.86,10.0,SSE,4.6,-,N/A,,Clear,160,2013-07-15 11:56:00
5:56 AM,52.0,48.0,86,29.86,10.0,South,3.5,-,N/A,,Clear,170,2013-07-15 12:56:00
6:47 AM,51.8,48.2,88,29.89,10.0,SSE,8.1,-,N/A,,Partly Cloudy,150,2013-07-15 13:47:00
6:56 AM,51.1,48.9,92,29.87,10.0,SSE,6.9,-,N/A,,Partly Cloudy,160,2013-07-15 13:56:00
7:56 AM,55.0,50.0,83,29.88,10.0,South,5.8,-,N/A,,Clear,170,2013-07-15 14:56:00
8:56 AM,59.0,50.0,72,29.88,10.0,SSE,5.8,-,N/A,,Clear,150,2013-07-15 15:56:00
9:56 AM,64.9,51.1,61,29.86,10.0,Variable,5.8,-,N/A,,Clear,0,2013-07-15 16:56:00
10:56 AM,71.1,51.1,49,29.84,10.0,ESE,5.8,-,N/A,,Clear,110,2013-07-15 17:56:00
11:56 AM,77.0,50.0,39,29.82,10.0,SE,6.9,-,N/A,,Clear,130,2013-07-15 18:56:00
12:56 PM,82.9,50.0,32,29.81,10.0,SE,9.2,17.3,N/A,,Clear,140,2013-07-15 19:56:00
1:56 PM,86.0,50.0,29,29.78,10.0,SSE,12.7,19.6,N/A,,Clear,150,2013-07-15 20:56:00
2:56 PM,87.1,51.1,29,29.76,10.0,SSE,15.0,24.2,N/A,,Clear,150,2013-07-15 21:56:00
3:56 PM,87.1,53.1,31,29.75,10.0,SSE,15.0,23.0,N/A,,Clear,150,2013-07-15 22:56:00
4:56 PM,86.0,53.1,32,29.74,10.0,SSE,12.7,21.9,N/A,,Clear,150,2013-07-15 23:56:00
5:56 PM,82.9,53.1,36,29.74,10.0,SSE,13.8,21.9,N/A,,Clear,160,2013-07-16 00:56:00
6:56 PM,80.1,54.0,40,29.75,10.0,SSE,10.4,-,N/A,,Clear,150,2013-07-16 01:56:00
7:56 PM,75.0,53.1,46,29.76,10.0,SSE,9.2,-,N/A,,Clear,160,2013-07-16 02:56:00
8:56 PM,69.1,52.0,54,29.78,10.0,SSE,9.2,-,N/A,,Clear,160,2013-07-16 03:56:00
9:56 PM,64.9,51.1,61,29.81,10.0,SSE,4.6,-,N/A,,Clear,160,2013-07-16 04:56:00
10:56 PM,61.0,51.1,70,29.83,10.0,SSE,6.9,-,N/A,,Clear,160,2013-07-16 05:56:00
11:56 PM,57.9,50.0,75,29.83,10.0,South,5.8,-,N/A,,Clear,170,2013-07-16 06:56:00